User: anonymous   Login
Location: Waning Moon II Observatory
(30.3730°N, 89.7620°W)
Time: 22:34:55
(UTC-05:00)
Language:

Meteor 1-21 - Orbit

View from above orbital plane
View from above orbital plane
View from above satellite
View from above satellite

Ground track
Ground track

The orbit data is extracted from the following two-line orbital elements,

1 07714U 75023A   16270.50057434 -.00000013  00000-0 -14944-4 0  9992
2 07714  81.2066  88.4232 0031532 278.0664  81.6929 14.07936052448084
Epoch (UTC): 26 September 2016 12:00:49
Eccentricity: 0.0031532
inclination: 81.2066°
perigee height: 843 km
apogee height: 889 km
right ascension of ascending node: 88.4232°
argument of perigee: 278.0664°
revolutions per day: 14.07936052
mean anomaly at epoch: 81.6929°
orbit number at epoch: 44808

The dashed part of the orbit path shows where the satellite is in the earth's shadow,  

DLR